Погода в Колодезном

Украина / Харьковская область     50°00′19″N   37°41′00″E
темп.,
°C
ветер,
м/с
пор.,
м/с
влажн.,
%
обл.,
%
осадки,
мм/ч
давл.,
гПа
погр.,
м
17 октября, вс
вс1700:00+12ссв2258100 0.0 101818
03:00+11с2362100 0.0 101776
06:00+11ссв2463100 0.0 101795
09:00+12ссв3548100 0.0 1017286
12:00+14с3247100 0.0 1017632
15:00+14ссз3346100 0.0 1016665
18:00+11ссз2466100 0.0 1016145
21:00+8ссз34795 0.0 101667
18 октября, пн
пн1800:00+7ссз358243 0.0 101785
03:00+5сз348656 0.0 101774
06:00+4сз348940 0.0 101865
09:00+7сз3468100 0.0 1018251
12:00+11зсз454852 0.0 10171205
15:00+12зсз554295 0.0 10161468
18:00+9зсз3650100 0.0 1017171
21:00+7з3656100 0.0 1017151
19 октября, вт
вт1900:00+6зсз3578100 0.4 1017701
03:00+6зюз3686100 1.5 1016712
06:00+6з5687100 0.6 1016936
09:00+4с71195100 2.4 1017683
12:00+8ссз685350 0.2 10181665
15:00+10сз8943100 0.2 10182019
18:00+7сз695899 0.0 1020859
21:00+5сз61066100 0.0 10221159
20 октября, ср
ср2000:00+5зсз6965100 0.0 10231042
03:00+5сз6105099 0.0 10231394
06:00+2зсз39745 0.0 1025216
09:00+3сз586928 0.0 1026606
12:00+6сз5643100 0.0 10261130
15:00+8зсз45355 0.0 10261249
18:00+5зюз2243100 0.0 102611
21:00+4ююз2244100 0.0 102618
21 октября, чт
чт2100:00+5ю3844100 0.0 1025244
03:00+6ююз4114999 0.0 1023338
06:00+5ююз61446100 0.0 1022337
09:00+7юз7165462 0.0 1022508
12:00+13юз9135098 0.0 1020917
15:00+16юз8124360 0.0 10181156
18:00+13юз71455100 0.0 1018630
21:00+11ююз71656100 0.0 1017557